Regional Weather Roundup
Issued by NWS

Home | Current Version | Previous Version | Graphics & Text | Print | Product List | Glossary On
Versions: 1 2 3 4 5 6 7 8 9 10 11 12 13 14 15 16 17 18 19 20 21 22 23 24 25 26 27 28 29 30 31 32 33 34 35 36 37 38 39 40 41 42 43 44 45 46 47 48 49 50
000
ASUS45 KCYS 271910
RWRWY

WYOMING REGIONAL WEATHER ROUNDUP
NATIONAL WEATHER SERVICE CHEYENNE WY
100 PM MDT SUN JUL 27 2014

NOTE:  "FAIR" INDICATES FEW OR NO CLOUDS BELOW 12,000 FEET
WITH NO SIGNIFICANT WEATHER AND/OR OBSTRUCTIONS TO VISIBILITY.

WYZ001-272000-
YELLOWSTONE NATIONAL PARK

CITY           SKY/WX    TMP DP  RH WIND       PRES   REMARKS
LK YELLOWSTONE   N/A     71  46  40 VRB5      30.51F
W YELLOWSTONE  NOT AVBL

$$
WYZ002>013-054>058-071-098>099-272000-
NORTHERN WYOMING

CITY           SKY/WX    TMP DP  RH WIND       PRES   REMARKS
JACKSON        SUNNY     77  34  20 CALM      30.41F
CODY           NOT AVBL
GREYBULL       SUNNY     83  35  18 VRB6      30.28F
WORLAND        SUNNY     81  32  17 VRB5      30.29F
SHERIDAN       SUNNY     81  41  24 E6        30.32F
BUFFALO        SUNNY     77  36  22 VRB3      30.38F
GILLETTE       SUNNY     79  39  23 E3        30.35F
HULETT         FAIR      73  45  35 MISG      30.36
NEWCASTLE      FAIR      79  36  21 NW9       30.33

$$
WYZ014>020-022>026-101>103-272000-
CENTRAL WYOMING

CITY           SKY/WX    TMP DP  RH WIND       PRES   REMARKS
BIG PINEY      SUNNY     78  26  14 VRB6      30.46F
PINEDALE       CLEAR     77  28  16 N6        30.46F
DUBOIS         FAIR      75  28  17 SE7       30.46F
LANDER         SUNNY     82  35  18 NE6       30.36F
RIVERTON       SUNNY     78  35  21 SE9       30.38F
CASPER         SUNNY     81  46  29 E13       30.36F
DOUGLAS        SUNNY     81  47  30 E13       30.37F

$$
WYZ021-027>030-104>119-272000-
SOUTHERN WYOMING

CITY           SKY/WX    TMP DP  RH WIND       PRES   REMARKS
EVANSTON       PTSUNNY   82  25  12 E12       30.43F
KEMMERER       CLEAR    N/A N/A N/A CALM      30.46F
FORT BRIDGER   FAIR      82  27  13 E6        30.46F
ROCK SPRINGS   SUNNY     83  34  17 E12       30.42F
DIXON          FAIR      83  37  19 W6        30.41F
RAWLINS        SUNNY     80  43  26 NE8       30.42F
SARATOGA       FAIR      79  41  25 N6        30.44S
LARAMIE        SUNNY     75  52  44 SE14G25   30.45F
CHEYENNE       PTSUNNY   72  55  55 SE13G20   30.42F
TORRINGTON     PTSUNNY   81  51  35 S8        30.33F
PINE BLUFFS    FAIR      81  46  30 SE12G17   30.38F

$$


USA.gov is the U.S. government's official web portal to all federal, state and local government web resources and services.